Time,TemperatureF,DewpointF,PressureIn,WindDirection,WindDirectionDegrees,WindSpeedMPH,WindSpeedGustMPH,Humidity,HourlyPrecipIn,Conditions,Clouds,dailyrainin,SoftwareType,DateUTC
2013-12-22 00:02:00,70.4,66.0,29.99,NE,42,0.0,1.0,86,0.00,,,0.00,Wunderground v.1.15,2013-12-21 13:02:00,
2013-12-22 00:07:00,70.3,65.9,29.99,NE,42,0.0,1.0,86,0.00,,,0.00,Wunderground v.1.15,2013-12-21 13:07:00,
2013-12-22 00:12:00,70.2,66.1,29.99,NE,42,0.0,0.0,87,0.00,,,0.00,Wunderground v.1.15,2013-12-21 13:12:00,
2013-12-22 00:18:00,70.2,66.1,30.00,NE,43,0.0,0.0,87,0.00,,,0.00,Wunderground v.1.15,2013-12-21 13:18:00,
2013-12-22 00:23:00,70.1,66.0,29.99,NE,43,0.0,0.0,87,0.00,,,0.00,Wunderground v.1.15,2013-12-21 13:23:00,
2013-12-22 00:28:00,70.1,66.0,30.00,NE,42,0.0,0.0,87,0.00,,,0.00,Wunderground v.1.15,2013-12-21 13:28:00,
2013-12-22 00:34:00,70.1,66.4,30.00,NE,42,0.0,0.0,88,0.00,,,0.00,Wunderground v.1.15,2013-12-21 13:34:00,
2013-12-22 00:39:00,70.2,66.5,29.99,NE,42,0.0,0.0,88,0.00,,,0.00,Wunderground v.1.15,2013-12-21 13:39:00,
2013-12-22 00:45:00,70.2,66.1,29.99,NE,42,0.0,0.0,87,0.00,,,0.00,Wunderground v.1.15,2013-12-21 13:45:00,
2013-12-22 00:50:00,70.2,66.5,29.99,North,-999,0.0,0.0,88,0.00,,,-99.99,WeatherLink 5.9.3,2013-12-21 13:50:00,
2013-12-22 00:56:00,70.3,65.9,29.99,SSE,165,0.0,1.0,86,0.00,,,0.00,Wunderground v.1.15,2013-12-21 13:56:00,
2013-12-22 01:02:00,70.2,65.8,29.98,South,176,0.0,0.0,86,0.00,,,0.00,Wunderground v.1.15,2013-12-21 14:02:00,
2013-12-22 01:07:00,70.1,65.7,29.98,South,175,1.0,1.0,86,0.00,,,0.00,Wunderground v.1.15,2013-12-21 14:07:00,
2013-12-22 01:13:00,70.1,65.7,29.99,South,181,0.0,0.0,86,0.00,,,0.00,Wunderground v.1.15,2013-12-21 14:13:00,
2013-12-22 01:18:00,70.1,66.0,29.98,South,184,0.0,1.0,87,0.00,,,0.00,Wunderground v.1.15,2013-12-21 14:18:00,
2013-12-22 01:23:00,70.1,66.0,29.98,South,188,0.0,1.0,87,0.00,,,0.00,Wunderground v.1.15,2013-12-21 14:23:00,
2013-12-22 01:29:00,70.1,66.0,29.98,South,188,0.0,1.0,87,0.00,,,0.00,Wunderground v.1.15,2013-12-21 14:29:00,
2013-12-22 01:34:00,70.1,66.0,29.98,South,188,0.0,1.0,87,0.00,,,0.00,Wunderground v.1.15,2013-12-21 14:34:00,
2013-12-22 01:40:00,70.1,66.0,29.98,North,-999,0.0,0.0,87,0.00,,,-99.99,WeatherLink 5.9.3,2013-12-21 14:40:00,
2013-12-22 01:46:00,70.2,66.1,29.98,South,188,0.0,0.0,87,0.00,,,0.00,Wunderground v.1.15,2013-12-21 14:46:00,
2013-12-22 01:51:00,70.2,66.1,29.97,South,188,0.0,0.0,87,0.00,,,0.00,Wunderground v.1.15,2013-12-21 14:51:00,
2013-12-22 01:57:00,70.3,66.2,29.97,South,188,0.0,0.0,87,0.00,,,0.00,Wunderground v.1.15,2013-12-21 14:57:00,
2013-12-22 02:02:00,70.3,66.2,29.97,South,188,0.0,0.0,87,0.00,,,0.00,Wunderground v.1.15,2013-12-21 15:02:00,
2013-12-22 02:07:00,70.4,66.3,29.97,South,188,0.0,0.0,87,0.00,,,0.00,Wunderground v.1.15,2013-12-21 15:07:00,
2013-12-22 02:12:00,70.4,66.3,29.97,South,188,0.0,0.0,87,0.00,,,0.00,Wunderground v.1.15,2013-12-21 15:12:00,
2013-12-22 02:17:00,70.4,66.3,29.97,South,188,0.0,0.0,87,0.00,,,0.00,Wunderground v.1.15,2013-12-21 15:17:00,
2013-12-22 02:22:00,70.4,66.3,29.97,South,188,0.0,0.0,87,0.00,,,0.00,Wunderground v.1.15,2013-12-21 15:22:00,
2013-12-22 02:27:00,70.4,66.3,29.96,South,188,0.0,1.0,87,0.00,,,0.00,Wunderground v.1.15,2013-12-21 15:27:00,
2013-12-22 02:32:00,70.5,66.4,29.96,South,186,0.0,1.0,87,0.00,,,0.00,Wunderground v.1.15,2013-12-21 15:32:00,
2013-12-22 02:38:00,70.5,66.4,29.97,South,186,0.0,1.0,87,0.00,,,0.00,Wunderground v.1.15,2013-12-21 15:38:00,
2013-12-22 02:43:00,70.5,66.4,29.96,SE,129,0.0,0.0,87,0.00,,,0.00,Wunderground v.1.15,2013-12-21 15:43:00,
2013-12-22 02:48:00,70.6,66.5,29.96,SE,129,0.0,0.0,87,0.00,,,0.00,Wunderground v.1.15,2013-12-21 15:48:00,
2013-12-22 02:53:00,70.6,66.5,29.96,SE,129,0.0,0.0,87,0.00,,,0.00,Wunderground v.1.15,2013-12-21 15:53:00,
2013-12-22 02:58:00,70.5,66.4,29.96,SE,129,0.0,0.0,87,0.00,,,0.00,Wunderground v.1.15,2013-12-21 15:58:00,
2013-12-22 03:03:00,70.5,66.4,29.96,SE,129,0.0,0.0,87,0.00,,,0.00,Wunderground v.1.15,2013-12-21 16:03:00,
2013-12-22 03:08:00,70.5,66.4,29.96,SE,129,0.0,0.0,87,0.00,,,0.00,Wunderground v.1.15,2013-12-21 16:08:00,
2013-12-22 03:13:00,70.5,66.8,29.96,SE,129,0.0,0.0,88,0.00,,,0.00,Wunderground v.1.15,2013-12-21 16:13:00,
2013-12-22 03:18:00,70.5,66.8,29.96,SE,131,0.0,0.0,88,0.00,,,0.00,Wunderground v.1.15,2013-12-21 16:18:00,
2013-12-22 03:23:00,70.5,66.8,29.96,East,98,0.0,0.0,88,0.00,,,0.00,Wunderground v.1.15,2013-12-21 16:23:00,
2013-12-22 03:28:00,70.6,66.9,29.96,NE,46,0.0,1.0,88,0.00,,,0.00,Wunderground v.1.15,2013-12-21 16:28:00,
2013-12-22 03:33:00,70.7,66.6,29.95,NNE,28,0.0,1.0,87,0.00,,,0.00,Wunderground v.1.15,2013-12-21 16:33:00,
2013-12-22 03:38:00,70.7,67.0,29.95,NNE,28,0.0,1.0,88,0.00,,,0.00,Wunderground v.1.15,2013-12-21 16:38:00,
2013-12-22 03:43:00,70.7,66.6,29.95,NNE,29,0.0,0.0,87,0.00,,,0.00,Wunderground v.1.15,2013-12-21 16:43:00,
2013-12-22 03:48:00,70.7,66.6,29.95,NNE,28,0.0,0.0,87,0.00,,,0.00,Wunderground v.1.15,2013-12-21 16:48:00,
2013-12-22 03:54:00,70.8,67.1,29.95,NE,51,0.0,1.0,88,0.00,,,0.00,Wunderground v.1.15,2013-12-21 16:54:00,
2013-12-22 03:59:00,70.9,67.2,29.94,ENE,63,0.0,1.0,88,0.00,,,0.00,Wunderground v.1.15,2013-12-21 16:59:00,
2013-12-22 04:04:00,70.9,67.2,29.94,ENE,64,1.0,1.0,88,0.00,,,0.00,Wunderground v.1.15,2013-12-21 17:04:00,
2013-12-22 04:09:00,70.8,67.1,29.94,NE,50,0.0,2.0,88,0.00,,,0.00,Wunderground v.1.15,2013-12-21 17:09:00,
2013-12-22 04:14:00,70.8,67.1,29.94,NNE,29,0.0,1.0,88,0.00,,,0.00,Wunderground v.1.15,2013-12-21 17:14:00,
2013-12-22 04:19:00,70.7,67.0,29.94,NE,52,0.0,1.0,88,0.00,,,0.00,Wunderground v.1.15,2013-12-21 17:19:00,
2013-12-22 04:24:00,70.7,67.0,29.94,NE,45,0.0,1.0,88,0.00,,,0.00,Wunderground v.1.15,2013-12-21 17:24:00,
2013-12-22 04:29:00,70.7,67.0,29.94,NE,45,1.0,1.0,88,0.00,,,0.00,Wunderground v.1.15,2013-12-21 17:29:00,
2013-12-22 04:34:00,70.7,67.0,29.94,ENE,66,1.0,1.0,88,0.00,,,0.00,Wunderground v.1.15,2013-12-21 17:34:00,
2013-12-22 04:39:00,70.6,66.9,29.94,NE,56,2.0,2.0,88,0.00,,,0.00,Wunderground v.1.15,2013-12-21 17:39:00,
2013-12-22 04:44:00,70.6,67.2,29.93,NE,49,0.0,2.0,89,0.00,,,0.00,Wunderground v.1.15,2013-12-21 17:44:00,
2013-12-22 04:49:00,70.5,67.1,29.94,NNE,30,0.0,2.0,89,0.00,,,0.00,Wunderground v.1.15,2013-12-21 17:49:00,
2013-12-22 04:54:00,70.5,67.1,29.94,NE,39,1.0,2.0,89,0.00,,,0.00,Wunderground v.1.15,2013-12-21 17:54:00,
2013-12-22 04:59:00,70.5,67.1,29.93,NE,42,0.0,2.0,89,0.00,,,0.00,Wunderground v.1.15,2013-12-21 17:59:00,
2013-12-22 05:04:00,70.4,67.3,29.93,ENE,63,0.0,1.0,90,0.00,,,0.00,Wunderground v.1.15,2013-12-21 18:04:00,
2013-12-22 05:09:00,70.4,67.3,29.93,ENE,73,0.0,2.0,90,0.00,,,0.00,Wunderground v.1.15,2013-12-21 18:09:00,
2013-12-22 05:14:00,70.3,67.2,29.93,NNE,22,1.0,1.0,90,0.00,,,0.00,Wunderground v.1.15,2013-12-21 18:14:00,
2013-12-22 05:19:00,70.3,67.2,29.93,ENE,62,0.0,1.0,90,0.00,,,0.00,Wunderground v.1.15,2013-12-21 18:19:00,
2013-12-22 05:24:00,70.3,67.5,29.93,ENE,62,1.0,1.0,91,0.00,,,0.00,Wunderground v.1.15,2013-12-21 18:24:00,
2013-12-22 05:29:00,70.3,67.5,29.93,NE,44,0.0,1.0,91,0.00,,,0.00,Wunderground v.1.15,2013-12-21 18:29:00,
2013-12-22 05:34:00,70.3,67.5,29.93,ENE,59,0.0,2.0,91,0.00,,,0.00,Wunderground v.1.15,2013-12-21 18:34:00,
2013-12-22 05:39:00,70.2,67.4,29.93,NE,48,0.0,2.0,91,0.00,,,0.00,Wunderground v.1.15,2013-12-21 18:39:00,
2013-12-22 05:44:00,70.3,67.5,29.94,East,83,0.0,1.0,91,0.00,,,0.00,Wunderground v.1.15,2013-12-21 18:44:00,
2013-12-22 05:49:00,70.3,67.5,29.93,East,89,1.0,3.0,91,0.00,,,0.00,Wunderground v.1.15,2013-12-21 18:49:00,
2013-12-22 05:54:00,70.3,67.5,29.93,NE,47,2.0,2.0,91,0.00,,,0.00,Wunderground v.1.15,2013-12-21 18:54:00,
2013-12-22 05:59:00,70.3,67.5,29.93,NE,38,0.0,2.0,91,0.00,,,0.00,Wunderground v.1.15,2013-12-21 18:59:00,
2013-12-22 06:04:00,70.3,67.5,29.93,NE,41,1.0,2.0,91,0.00,,,0.00,Wunderground v.1.15,2013-12-21 19:04:00,
2013-12-22 06:09:00,70.3,67.9,29.93,NNE,22,1.0,2.0,92,0.00,,,0.00,Wunderground v.1.15,2013-12-21 19:09:00,
2013-12-22 06:14:00,70.4,68.0,29.93,NNE,29,0.0,2.0,92,0.00,,,0.00,Wunderground v.1.15,2013-12-21 19:14:00,
2013-12-22 06:19:00,70.4,67.6,29.93,NNE,30,0.0,2.0,91,0.00,,,0.00,Wunderground v.1.15,2013-12-21 19:19:00,
2013-12-22 06:24:00,70.5,67.7,29.93,NNE,25,1.0,2.0,91,0.00,,,0.00,Wunderground v.1.15,2013-12-21 19:24:00,
2013-12-22 06:29:00,70.5,67.7,29.93,NE,38,0.0,4.0,91,0.00,,,0.00,Wunderground v.1.15,2013-12-21 19:29:00,
2013-12-22 06:35:00,70.6,67.8,29.93,NNE,23,1.0,2.0,91,0.00,,,0.00,Wunderground v.1.15,2013-12-21 19:35:00,
2013-12-22 06:40:00,70.5,67.7,29.93,NE,45,1.0,4.0,91,0.00,,,-99.99,WeatherLink 5.9.3,2013-12-21 19:40:00,
2013-12-22 06:45:00,70.7,67.9,29.94,East,87,2.0,3.0,91,0.00,,,0.00,Wunderground v.1.15,2013-12-21 19:45:00,
2013-12-22 06:51:00,70.6,67.8,29.93,NE,45,1.0,3.0,91,0.00,,,-99.99,WeatherLink 5.9.3,2013-12-21 19:51:00,
2013-12-22 06:56:00,70.8,68.0,29.94,NE,46,1.0,3.0,91,0.00,,,0.00,Wunderground v.1.15,2013-12-21 19:56:00,
2013-12-22 07:00:00,70.9,68.1,29.94,NE,41,1.0,1.0,91,0.00,,,0.00,Wunderground v.1.15,2013-12-21 20:00:00,
2013-12-22 07:05:00,71.1,68.3,29.94,NNE,20,1.0,2.0,91,0.00,,,0.00,Wunderground v.1.15,2013-12-21 20:05:00,
2013-12-22 07:11:00,70.9,68.1,29.94,NE,45,1.0,3.0,91,0.00,,,-99.99,WeatherLink 5.9.3,2013-12-21 20:11:00,
2013-12-22 07:16:00,71.4,68.3,29.95,NE,45,0.0,1.0,90,0.00,,,0.00,Wunderground v.1.15,2013-12-21 20:16:00,
2013-12-22 07:21:00,71.7,68.6,29.95,NE,41,1.0,1.0,90,0.00,,,0.00,Wunderground v.1.15,2013-12-21 20:21:00,
2013-12-22 07:26:00,71.8,68.4,29.95,North,10,0.0,2.0,89,0.00,,,0.00,Wunderground v.1.15,2013-12-21 20:26:00,
2013-12-22 07:31:00,72.1,68.7,29.95,NNW,338,0.0,1.0,89,0.00,,,0.00,Wunderground v.1.15,2013-12-21 20:31:00,
2013-12-22 07:36:00,72.3,68.5,29.95,NE,55,0.0,2.0,88,0.00,,,0.00,Wunderground v.1.15,2013-12-21 20:36:00,
2013-12-22 07:41:00,72.5,68.4,29.95,NNE,20,0.0,2.0,87,0.00,,,0.00,Wunderground v.1.15,2013-12-21 20:41:00,
2013-12-22 07:46:00,72.6,68.5,29.95,NNE,27,0.0,2.0,87,0.00,,,0.00,Wunderground v.1.15,2013-12-21 20:46:00,
2013-12-22 07:51:00,72.7,68.6,29.95,NE,47,0.0,1.0,87,0.00,,,0.00,Wunderground v.1.15,2013-12-21 20:51:00,
2013-12-22 07:56:00,73.0,68.9,29.95,NE,38,0.0,1.0,87,0.00,,,0.00,Wunderground v.1.15,2013-12-21 20:56:00,
2013-12-22 08:01:00,73.4,68.6,29.94,NNE,32,1.0,2.0,85,0.00,,,0.00,Wunderground v.1.15,2013-12-21 21:01:00,
2013-12-22 08:06:00,73.9,69.1,29.94,SSW,192,0.0,3.0,85,0.00,,,0.00,Wunderground v.1.15,2013-12-21 21:06:00,
2013-12-22 08:11:00,74.5,69.0,29.94,NNE,15,1.0,1.0,83,0.00,,,0.00,Wunderground v.1.15,2013-12-21 21:11:00,
2013-12-22 08:16:00,75.2,69.0,29.94,NNE,30,1.0,3.0,81,0.00,,,0.00,Wunderground v.1.15,2013-12-21 21:16:00,
2013-12-22 08:21:00,75.3,68.7,29.94,NE,44,1.0,1.0,80,0.00,,,0.00,Wunderground v.1.15,2013-12-21 21:21:00,
2013-12-22 08:26:00,76.0,69.7,29.94,NNW,335,2.0,2.0,81,0.00,,,0.00,Wunderground v.1.15,2013-12-21 21:26:00,
2013-12-22 08:31:00,77.1,69.7,29.94,NE,34,4.0,5.0,78,0.00,,,0.00,Wunderground v.1.15,2013-12-21 21:31:00,
2013-12-22 08:36:00,77.8,70.0,29.94,NE,48,1.0,5.0,77,0.00,,,0.00,Wunderground v.1.15,2013-12-21 21:36:00,
2013-12-22 08:41:00,78.4,69.8,29.93,NE,44,1.0,4.0,75,0.00,,,0.00,Wunderground v.1.15,2013-12-21 21:41:00,
2013-12-22 08:46:00,78.9,70.3,29.93,West,274,0.0,4.0,75,0.00,,,0.00,Wunderground v.1.15,2013-12-21 21:46:00,
2013-12-22 08:51:00,79.7,70.3,29.93,NW,321,0.0,5.0,73,0.00,,,0.00,Wunderground v.1.15,2013-12-21 21:51:00,
2013-12-22 08:56:00,80.6,70.7,29.93,ENE,60,1.0,5.0,72,0.00,,,0.00,Wunderground v.1.15,2013-12-21 21:56:00,
2013-12-22 09:01:00,80.6,70.3,29.93,WNW,283,1.0,3.0,71,0.00,,,0.00,Wunderground v.1.15,2013-12-21 22:01:00,
2013-12-22 09:06:00,81.0,70.7,29.93,NNE,15,1.0,4.0,71,0.00,,,0.00,Wunderground v.1.15,2013-12-21 22:06:00,
2013-12-22 09:11:00,81.8,71.5,29.92,WNW,303,1.0,3.0,71,0.00,,,0.00,Wunderground v.1.15,2013-12-21 22:11:00,
2013-12-22 09:16:00,82.0,70.8,29.92,East,83,1.0,4.0,69,0.00,,,0.00,Wunderground v.1.15,2013-12-21 22:16:00,
2013-12-22 09:21:00,81.9,70.3,29.92,NE,55,0.0,2.0,68,0.00,,,0.00,Wunderground v.1.15,2013-12-21 22:21:00,
2013-12-22 09:26:00,82.2,70.1,29.92,NNE,26,2.0,4.0,67,0.00,,,0.00,Wunderground v.1.15,2013-12-21 22:26:00,
2013-12-22 09:31:00,82.1,70.1,29.92,North,356,2.0,5.0,67,0.00,,,0.00,Wunderground v.1.15,2013-12-21 22:31:00,
2013-12-22 09:36:00,81.8,70.6,29.91,NNE,14,1.0,5.0,69,0.00,,,0.00,Wunderground v.1.15,2013-12-21 22:36:00,
2013-12-22 09:41:00,82.4,71.2,29.92,NW,314,0.0,2.0,69,0.00,,,0.00,Wunderground v.1.15,2013-12-21 22:41:00,
2013-12-22 09:46:00,82.6,70.5,29.91,NNE,23,4.0,6.0,67,0.00,,,0.00,Wunderground v.1.15,2013-12-21 22:46:00,
2013-12-22 09:51:00,82.4,70.3,29.91,NNE,30,2.0,4.0,67,0.00,,,0.00,Wunderground v.1.15,2013-12-21 22:51:00,
2013-12-22 09:56:00,83.1,70.6,29.91,NNE,24,2.0,5.0,66,0.00,,,0.00,Wunderground v.1.15,2013-12-21 22:56:00,
2013-12-22 10:01:00,83.9,71.3,29.91,WNW,302,0.0,3.0,66,0.00,,,0.00,Wunderground v.1.15,2013-12-21 23:01:00,
2013-12-22 10:06:00,84.7,70.7,29.90,NNE,30,2.0,4.0,63,0.00,,,0.00,Wunderground v.1.15,2013-12-21 23:06:00,
2013-12-22 10:11:00,85.2,71.2,29.90,ENE,59,0.0,5.0,63,0.00,,,0.00,Wunderground v.1.15,2013-12-21 23:11:00,
2013-12-22 10:16:00,85.2,70.7,29.90,NNW,332,1.0,6.0,62,0.00,,,0.00,Wunderground v.1.15,2013-12-21 23:16:00,
2013-12-22 10:21:00,86.2,71.2,29.90,NW,319,2.0,2.0,61,0.00,,,0.00,Wunderground v.1.15,2013-12-21 23:21:00,
2013-12-22 10:26:00,86.8,71.2,29.90,NE,35,2.0,3.0,60,0.00,,,0.00,Wunderground v.1.15,2013-12-21 23:26:00,
2013-12-22 10:31:00,86.9,71.3,29.90,NW,314,1.0,5.0,60,0.00,,,0.00,Wunderground v.1.15,2013-12-21 23:31:00,
2013-12-22 10:36:00,87.7,71.6,29.90,ENE,75,1.0,5.0,59,0.00,,,0.00,Wunderground v.1.15,2013-12-21 23:36:00,
2013-12-22 10:41:00,87.9,70.2,29.89,NE,37,4.0,4.0,56,0.00,,,0.00,Wunderground v.1.15,2013-12-21 23:41:00,
2013-12-22 10:46:00,88.1,72.0,29.89,West,281,1.0,5.0,59,0.00,,,0.00,Wunderground v.1.15,2013-12-21 23:46:00,
2013-12-22 10:51:00,88.8,71.6,29.89,North,349,2.0,2.0,57,0.00,,,0.00,Wunderground v.1.15,2013-12-21 23:51:00,
2013-12-22 10:56:00,88.9,69.6,29.89,NNE,23,2.0,5.0,53,0.00,,,0.00,Wunderground v.1.15,2013-12-21 23:56:00,
2013-12-22 11:01:00,88.9,69.6,29.89,NNE,22,2.0,5.0,53,0.00,,,-99.99,WeatherLink 5.9.3,2013-12-22 00:01:00,
2013-12-22 11:06:00,90.2,70.8,29.88,North,353,3.0,5.0,53,0.00,,,0.00,Wunderground v.1.15,2013-12-22 00:06:00,
2013-12-22 11:11:00,90.7,70.7,29.88,NNE,24,5.0,5.0,52,0.00,,,0.00,Wunderground v.1.15,2013-12-22 00:11:00,
2013-12-22 11:16:00,91.3,70.6,29.88,NNE,14,5.0,6.0,51,0.00,,,0.00,Wunderground v.1.15,2013-12-22 00:16:00,
2013-12-22 11:21:00,91.6,69.7,29.88,NNW,339,1.0,6.0,49,0.00,,,0.00,Wunderground v.1.15,2013-12-22 00:21:00,
2013-12-22 11:26:00,92.4,68.6,29.88,North,354,4.0,6.0,46,0.00,,,0.00,Wunderground v.1.15,2013-12-22 00:26:00,
2013-12-22 11:31:00,93.0,70.4,29.88,NW,309,0.0,2.0,48,0.00,,,0.00,Wunderground v.1.15,2013-12-22 00:31:00,
2013-12-22 11:36:00,93.7,70.4,29.87,WNW,284,1.0,5.0,47,0.00,,,0.00,Wunderground v.1.15,2013-12-22 00:36:00,
2013-12-22 11:41:00,93.6,68.4,29.87,SW,223,5.0,7.0,44,0.00,,,0.00,Wunderground v.1.15,2013-12-22 00:41:00,
2013-12-22 11:46:00,94.0,70.1,29.87,West,267,6.0,7.0,46,0.00,,,0.00,Wunderground v.1.15,2013-12-22 00:46:00,
2013-12-22 11:51:00,94.1,68.2,29.87,NW,320,3.0,4.0,43,0.00,,,0.00,Wunderground v.1.15,2013-12-22 00:51:00,
2013-12-22 11:56:00,94.8,68.8,29.86,NW,308,0.0,4.0,43,0.00,,,0.00,Wunderground v.1.15,2013-12-22 00:56:00,
2013-12-22 12:01:00,95.1,68.4,29.86,WNW,302,1.0,2.0,42,0.00,,,0.00,Wunderground v.1.15,2013-12-22 01:01:00,
2013-12-22 12:06:00,95.1,67.7,29.86,NW,325,1.0,8.0,41,0.00,,,0.00,Wunderground v.1.15,2013-12-22 01:06:00,
2013-12-22 12:11:00,95.9,68.4,29.86,East,82,1.0,2.0,41,0.00,,,0.00,Wunderground v.1.15,2013-12-22 01:11:00,
2013-12-22 12:16:00,96.4,66.7,29.86,WNW,283,5.0,11.0,38,0.00,,,0.00,Wunderground v.1.15,2013-12-22 01:16:00,
2013-12-22 12:21:00,96.6,66.8,29.85,West,265,4.0,13.0,38,0.00,,,0.00,Wunderground v.1.15,2013-12-22 01:21:00,
2013-12-22 12:26:00,96.5,66.0,29.85,NNW,346,2.0,13.0,37,0.00,,,0.00,Wunderground v.1.15,2013-12-22 01:26:00,
2013-12-22 12:31:00,97.0,66.4,29.85,WNW,292,4.0,6.0,37,0.00,,,0.00,Wunderground v.1.15,2013-12-22 01:31:00,
2013-12-22 12:36:00,96.9,66.3,29.85,NNW,339,1.0,7.0,37,0.00,,,0.00,Wunderground v.1.15,2013-12-22 01:36:00,
2013-12-22 12:41:00,96.8,66.2,29.85,North,354,2.0,3.0,37,0.00,,,0.00,Wunderground v.1.15,2013-12-22 01:41:00,
2013-12-22 12:46:00,97.3,66.7,29.84,NW,319,1.0,7.0,37,0.00,,,0.00,Wunderground v.1.15,2013-12-22 01:46:00,
2013-12-22 12:51:00,98.0,66.5,29.84,North,7,2.0,8.0,36,0.00,,,0.00,Wunderground v.1.15,2013-12-22 01:51:00,
2013-12-22 12:56:00,98.6,66.2,29.84,NW,322,3.0,8.0,35,0.00,,,0.00,Wunderground v.1.15,2013-12-22 01:56:00,
2013-12-22 13:01:00,98.6,67.8,29.83,WNW,300,2.0,4.0,37,0.00,,,0.00,Wunderground v.1.15,2013-12-22 02:01:00,
2013-12-22 13:06:00,98.7,67.9,29.83,North,360,4.0,6.0,37,0.00,,,0.00,Wunderground v.1.15,2013-12-22 02:06:00,
2013-12-22 13:11:00,98.5,66.1,29.83,NW,323,5.0,5.0,35,0.00,,,0.00,Wunderground v.1.15,2013-12-22 02:11:00,
2013-12-22 13:16:00,98.7,67.9,29.83,NW,322,0.0,6.0,37,0.00,,,0.00,Wunderground v.1.15,2013-12-22 02:16:00,
2013-12-22 13:21:00,99.1,67.5,29.82,NNE,13,1.0,2.0,36,0.00,,,0.00,Wunderground v.1.15,2013-12-22 02:21:00,
2013-12-22 13:26:00,99.8,67.3,29.82,WNW,287,0.0,3.0,35,0.00,,,0.00,Wunderground v.1.15,2013-12-22 02:26:00,
2013-12-22 13:31:00,99.8,67.3,29.82,West,264,4.0,5.0,35,0.00,,,0.00,Wunderground v.1.15,2013-12-22 02:31:00,
2013-12-22 13:36:00,99.5,67.8,29.82,WNW,294,3.0,8.0,36,0.00,,,0.00,Wunderground v.1.15,2013-12-22 02:36:00,
2013-12-22 13:42:00,100.0,66.6,29.81,WNW,288,6.0,6.0,34,0.00,,,0.00,Wunderground v.1.15,2013-12-22 02:42:00,
2013-12-22 13:47:00,100.6,67.1,29.81,NW,323,2.0,6.0,34,0.00,,,0.00,Wunderground v.1.15,2013-12-22 02:47:00,
2013-12-22 13:52:00,101.1,65.8,29.81,North,1,1.0,3.0,32,0.00,,,0.00,Wunderground v.1.15,2013-12-22 02:52:00,
2013-12-22 13:57:00,101.8,65.5,29.81,NW,325,0.0,5.0,31,0.00,,,0.00,Wunderground v.1.15,2013-12-22 02:57:00,
2013-12-22 14:02:00,102.4,66.9,29.81,NW,316,0.0,2.0,32,0.00,,,0.00,Wunderground v.1.15,2013-12-22 03:02:00,
2013-12-22 14:07:00,102.5,65.2,29.81,North,8,5.0,6.0,30,0.00,,,0.00,Wunderground v.1.15,2013-12-22 03:07:00,
2013-12-22 14:12:00,102.1,65.8,29.80,NNE,13,2.0,3.0,31,0.00,,,0.00,Wunderground v.1.15,2013-12-22 03:12:00,
2013-12-22 14:17:00,101.7,66.3,29.80,WNW,284,4.0,5.0,32,0.00,,,0.00,Wunderground v.1.15,2013-12-22 03:17:00,
2013-12-22 14:22:00,101.0,65.7,29.80,WNW,293,2.0,7.0,32,0.00,,,0.00,Wunderground v.1.15,2013-12-22 03:22:00,
2013-12-22 14:27:00,100.9,65.6,29.80,North,356,3.0,7.0,32,0.00,,,0.00,Wunderground v.1.15,2013-12-22 03:27:00,
2013-12-22 14:32:00,100.6,67.1,29.79,NW,311,2.0,3.0,34,0.00,,,0.00,Wunderground v.1.15,2013-12-22 03:32:00,
2013-12-22 14:37:00,100.9,66.5,29.79,NNW,336,2.0,4.0,33,0.00,,,0.00,Wunderground v.1.15,2013-12-22 03:37:00,
2013-12-22 14:42:00,101.5,66.1,29.79,NW,314,5.0,5.0,32,0.00,,,0.00,Wunderground v.1.15,2013-12-22 03:42:00,
2013-12-22 14:47:00,101.2,65.0,29.79,NE,49,4.0,8.0,31,0.00,,,0.00,Wunderground v.1.15,2013-12-22 03:47:00,
2013-12-22 14:52:00,100.7,65.5,29.79,NE,40,3.0,9.0,32,0.00,,,0.00,Wunderground v.1.15,2013-12-22 03:52:00,
2013-12-22 14:57:00,100.4,65.2,29.79,NE,51,1.0,9.0,32,0.00,,,0.00,Wunderground v.1.15,2013-12-22 03:57:00,
2013-12-22 15:02:00,100.4,65.2,29.79,NNE,21,3.0,3.0,32,0.00,,,0.00,Wunderground v.1.15,2013-12-22 04:02:00,
2013-12-22 15:07:00,100.3,65.1,29.79,NE,37,2.0,5.0,32,0.00,,,0.00,Wunderground v.1.15,2013-12-22 04:07:00,
2013-12-22 15:12:00,100.0,63.9,29.78,NW,309,2.0,5.0,31,0.00,,,0.00,Wunderground v.1.15,2013-12-22 04:12:00,
2013-12-22 15:17:00,99.8,64.7,29.78,NNE,30,3.0,5.0,32,0.00,,,0.00,Wunderground v.1.15,2013-12-22 04:17:00,
2013-12-22 15:22:00,99.6,63.6,29.78,NNW,334,4.0,5.0,31,0.00,,,0.00,Wunderground v.1.15,2013-12-22 04:22:00,
2013-12-22 15:27:00,99.5,64.4,29.78,NNW,343,2.0,5.0,32,0.00,,,0.00,Wunderground v.1.15,2013-12-22 04:27:00,
2013-12-22 15:32:00,99.6,64.5,29.77,NW,314,1.0,2.0,32,0.00,,,0.00,Wunderground v.1.15,2013-12-22 04:32:00,
2013-12-22 15:37:00,99.5,64.4,29.77,North,354,1.0,5.0,32,0.00,,,0.00,Wunderground v.1.15,2013-12-22 04:37:00,
2013-12-22 15:42:00,99.3,64.2,29.77,NW,318,4.0,5.0,32,0.00,,,0.00,Wunderground v.1.15,2013-12-22 04:42:00,
2013-12-22 15:47:00,99.4,64.3,29.77,NNE,17,3.0,5.0,32,0.00,,,0.00,Wunderground v.1.15,2013-12-22 04:47:00,
2013-12-22 15:52:00,99.6,64.5,29.77,North,352,2.0,3.0,32,0.00,,,0.00,Wunderground v.1.15,2013-12-22 04:52:00,
2013-12-22 15:57:00,100.2,66.8,29.77,NNW,343,0.0,3.0,34,0.00,,,0.00,Wunderground v.1.15,2013-12-22 04:57:00,
2013-12-22 16:01:00,100.8,65.5,29.77,NNW,343,2.0,2.0,32,0.00,,,0.00,Wunderground v.1.15,2013-12-22 05:01:00,
2013-12-22 16:02:00,101.0,64.8,29.77,NNW,327,0.0,3.0,31,0.00,,,0.00,Wunderground v.1.15,2013-12-22 05:02:00,
2013-12-22 16:07:00,101.3,64.1,29.76,NE,41,3.0,6.0,30,0.00,,,0.00,Wunderground v.1.15,2013-12-22 05:07:00,
2013-12-22 16:12:00,101.1,63.9,29.76,NE,35,1.0,3.0,30,0.00,,,0.00,Wunderground v.1.15,2013-12-22 05:12:00,
2013-12-22 16:17:00,100.8,62.7,29.76,NNE,24,3.0,6.0,29,0.00,,,0.00,Wunderground v.1.15,2013-12-22 05:17:00,
2013-12-22 16:22:00,100.6,64.5,29.76,NW,304,0.0,2.0,31,0.00,,,0.00,Wunderground v.1.15,2013-12-22 05:22:00,
2013-12-22 16:27:00,100.4,63.3,29.76,North,7,2.0,8.0,30,0.00,,,0.00,Wunderground v.1.15,2013-12-22 05:27:00,
2013-12-22 16:32:00,100.7,63.6,29.76,NNE,30,2.0,3.0,30,0.00,,,0.00,Wunderground v.1.15,2013-12-22 05:32:00,
2013-12-22 16:37:00,100.7,63.6,29.76,ENE,59,3.0,5.0,30,0.00,,,0.00,Wunderground v.1.15,2013-12-22 05:37:00,
2013-12-22 16:42:00,100.6,63.5,29.76,NE,34,3.0,3.0,30,0.00,,,0.00,Wunderground v.1.15,2013-12-22 05:42:00,
2013-12-22 16:47:00,101.0,62.9,29.75,NW,311,1.0,4.0,29,0.00,,,0.00,Wunderground v.1.15,2013-12-22 05:47:00,
2013-12-22 16:52:00,101.6,61.4,29.75,NW,308,3.0,3.0,27,0.00,,,0.00,Wunderground v.1.15,2013-12-22 05:52:00,
2013-12-22 16:57:00,101.9,62.7,29.75,NNW,342,0.0,4.0,28,0.00,,,0.00,Wunderground v.1.15,2013-12-22 05:57:00,
2013-12-22 17:03:00,101.9,61.6,29.75,NE,47,4.0,4.0,27,0.00,,,0.00,Wunderground v.1.15,2013-12-22 06:03:00,
2013-12-22 17:08:00,101.4,62.2,29.74,North,3,6.0,6.0,28,0.00,,,0.00,Wunderground v.1.15,2013-12-22 06:08:00,
2013-12-22 17:13:00,101.3,61.1,29.74,NNE,30,1.0,3.0,27,0.00,,,0.00,Wunderground v.1.15,2013-12-22 06:13:00,
2013-12-22 17:18:00,101.3,61.1,29.74,North,354,1.0,3.0,27,0.00,,,0.00,Wunderground v.1.15,2013-12-22 06:18:00,
2013-12-22 17:24:00,101.1,61.0,29.74,NNE,26,1.0,5.0,27,0.00,,,0.00,Wunderground v.1.15,2013-12-22 06:24:00,
2013-12-22 17:29:00,101.0,60.9,29.74,NNE,14,2.0,5.0,27,0.00,,,0.00,Wunderground v.1.15,2013-12-22 06:29:00,
2013-12-22 17:34:00,101.1,61.0,29.74,NNW,347,2.0,4.0,27,0.00,,,0.00,Wunderground v.1.15,2013-12-22 06:34:00,
2013-12-22 17:39:00,101.3,61.1,29.74,NE,40,2.0,7.0,27,0.00,,,0.00,Wunderground v.1.15,2013-12-22 06:39:00,
2013-12-22 17:44:00,101.3,61.1,29.74,NNW,343,2.0,4.0,27,0.00,,,0.00,Wunderground v.1.15,2013-12-22 06:44:00,
2013-12-22 17:49:00,101.4,61.2,29.74,West,271,1.0,6.0,27,0.00,,,0.00,Wunderground v.1.15,2013-12-22 06:49:00,
2013-12-22 17:55:00,101.8,61.5,29.74,ENE,71,1.0,2.0,27,0.00,,,0.00,Wunderground v.1.15,2013-12-22 06:55:00,
2013-12-22 17:59:00,101.5,63.3,29.74,NE,54,6.0,9.0,29,0.00,,,0.00,Wunderground v.1.15,2013-12-22 06:59:00,
2013-12-22 18:04:00,99.9,70.5,29.74,NE,47,4.0,6.0,39,0.00,,,0.00,Wunderground v.1.15,2013-12-22 07:04:00,
2013-12-22 18:09:00,98.7,70.9,29.74,NNE,24,5.0,11.0,41,0.00,,,0.00,Wunderground v.1.15,2013-12-22 07:09:00,
2013-12-22 18:14:00,97.3,71.7,29.74,NE,55,9.0,11.0,44,0.00,,,0.00,Wunderground v.1.15,2013-12-22 07:14:00,
2013-12-22 18:19:00,96.4,72.9,29.74,NNE,31,3.0,11.0,47,0.00,,,0.00,Wunderground v.1.15,2013-12-22 07:19:00,
2013-12-22 18:24:00,95.9,72.4,29.74,NE,42,4.0,8.0,47,0.00,,,0.00,Wunderground v.1.15,2013-12-22 07:24:00,
2013-12-22 18:29:00,95.3,71.9,29.74,ENE,59,3.0,8.0,47,0.00,,,0.00,Wunderground v.1.15,2013-12-22 07:29:00,
2013-12-22 18:34:00,95.0,71.0,29.74,ENE,58,6.0,10.0,46,0.00,,,0.00,Wunderground v.1.15,2013-12-22 07:34:00,
2013-12-22 18:39:00,94.9,70.2,29.74,NE,56,7.0,10.0,45,0.00,,,0.00,Wunderground v.1.15,2013-12-22 07:39:00,
2013-12-22 18:44:00,94.7,70.1,29.74,NNE,12,1.0,12.0,45,0.00,,,0.00,Wunderground v.1.15,2013-12-22 07:44:00,
2013-12-22 18:49:00,94.5,68.5,29.74,ENE,77,7.0,12.0,43,0.00,,,0.00,Wunderground v.1.15,2013-12-22 07:49:00,
2013-12-22 18:54:00,94.3,66.3,29.74,NE,38,3.0,10.0,40,0.00,,,0.00,Wunderground v.1.15,2013-12-22 07:54:00,
2013-12-22 19:00:00,94.8,70.1,29.74,NE,45,6.0,11.0,45,0.00,,,-99.99,WeatherLink 5.9.3,2013-12-22 08:00:00,
2013-12-22 19:53:00,90.0,64.5,29.75,ENE,76,1.0,1.0,43,0.00,,,0.00,Wunderground v.1.15,2013-12-22 08:53:00,
2013-12-22 19:58:00,89.7,64.9,29.76,ENE,68,0.0,3.0,44,0.00,,,0.00,Wunderground v.1.15,2013-12-22 08:58:00,
2013-12-22 20:03:00,89.3,65.2,29.76,ENE,72,1.0,1.0,45,0.00,,,0.00,Wunderground v.1.15,2013-12-22 09:03:00,
2013-12-22 20:08:00,88.9,65.4,29.76,NE,41,0.0,3.0,46,0.00,,,0.00,Wunderground v.1.15,2013-12-22 09:08:00,
2013-12-22 20:13:00,88.4,65.0,29.76,NE,42,1.0,2.0,46,0.00,,,0.00,Wunderground v.1.15,2013-12-22 09:13:00,
2013-12-22 20:18:00,88.0,65.2,29.76,NE,48,0.0,3.0,47,0.00,,,0.00,Wunderground v.1.15,2013-12-22 09:18:00,
2013-12-22 20:24:00,87.6,64.9,29.76,NE,37,0.0,3.0,47,0.00,,,0.00,Wunderground v.1.15,2013-12-22 09:24:00,
2013-12-22 20:29:00,87.2,65.1,29.76,NE,36,0.0,3.0,48,0.00,,,0.00,Wunderground v.1.15,2013-12-22 09:29:00,
2013-12-22 20:34:00,86.8,64.8,29.76,East,86,1.0,1.0,48,0.00,,,0.00,Wunderground v.1.15,2013-12-22 09:34:00,
2013-12-22 20:39:00,86.3,64.9,29.76,East,79,0.0,3.0,49,0.00,,,0.00,Wunderground v.1.15,2013-12-22 09:39:00,
2013-12-22 20:44:00,85.9,65.1,29.76,East,96,0.0,1.0,50,0.00,,,0.00,Wunderground v.1.15,2013-12-22 09:44:00,
2013-12-22 20:49:00,85.2,65.0,29.76,SW,229,0.0,1.0,51,0.00,,,0.00,Wunderground v.1.15,2013-12-22 09:49:00,
2013-12-22 20:54:00,84.6,65.0,29.77,SW,227,0.0,0.0,52,0.00,,,0.00,Wunderground v.1.15,2013-12-22 09:54:00,
2013-12-22 20:59:00,84.0,65.0,29.77,SW,227,0.0,0.0,53,0.00,,,0.00,Wunderground v.1.15,2013-12-22 09:59:00,
2013-12-22 21:04:00,83.4,65.0,29.77,SW,226,0.0,0.0,54,0.00,,,0.00,Wunderground v.1.15,2013-12-22 10:04:00,
2013-12-22 21:09:00,82.7,65.4,29.77,SW,229,0.0,0.0,56,0.00,,,0.00,Wunderground v.1.15,2013-12-22 10:09:00,
2013-12-22 21:14:00,82.0,65.3,29.77,SW,228,0.0,0.0,57,0.00,,,0.00,Wunderground v.1.15,2013-12-22 10:14:00,
2013-12-22 21:19:00,81.4,65.2,29.77,SW,229,0.0,0.0,58,0.00,,,0.00,Wunderground v.1.15,2013-12-22 10:19:00,
2013-12-22 21:24:00,80.8,65.1,29.77,SW,229,0.0,0.0,59,0.00,,,0.00,Wunderground v.1.15,2013-12-22 10:24:00,
2013-12-22 21:29:00,80.3,65.6,29.77,SW,228,0.0,0.0,61,0.00,,,0.00,Wunderground v.1.15,2013-12-22 10:29:00,
2013-12-22 21:34:00,79.7,65.1,29.77,SW,229,0.0,0.0,61,0.00,,,0.00,Wunderground v.1.15,2013-12-22 10:34:00,
2013-12-22 21:39:00,79.3,65.1,29.77,SW,229,0.0,0.0,62,0.00,,,0.00,Wunderground v.1.15,2013-12-22 10:39:00,
2013-12-22 21:44:00,79.4,65.7,29.77,SW,229,0.0,1.0,63,0.00,,,0.00,Wunderground v.1.15,2013-12-22 10:44:00,
2013-12-22 21:49:00,79.9,65.2,29.77,SW,229,0.0,1.0,61,0.00,,,0.00,Wunderground v.1.15,2013-12-22 10:49:00,
2013-12-22 21:54:00,79.9,65.2,29.77,SW,229,0.0,0.0,61,0.00,,,0.00,Wunderground v.1.15,2013-12-22 10:54:00,
2013-12-22 21:59:00,79.8,65.2,29.77,SW,229,0.0,0.0,61,0.00,,,0.00,Wunderground v.1.15,2013-12-22 10:59:00,
2013-12-22 22:04:00,79.9,64.8,29.77,SW,229,0.0,0.0,60,0.00,,,0.00,Wunderground v.1.15,2013-12-22 11:04:00,
2013-12-22 22:09:00,79.9,65.2,29.76,SW,229,0.0,0.0,61,0.00,,,0.00,Wunderground v.1.15,2013-12-22 11:09:00,
2013-12-22 22:14:00,79.5,65.3,29.77,SW,229,0.0,0.0,62,0.00,,,0.00,Wunderground v.1.15,2013-12-22 11:14:00,
2013-12-22 22:19:00,79.0,65.3,29.77,SW,229,0.0,0.0,63,0.00,,,0.00,Wunderground v.1.15,2013-12-22 11:19:00,
2013-12-22 22:24:00,78.5,65.3,29.76,SW,229,0.0,0.0,64,0.00,,,0.00,Wunderground v.1.15,2013-12-22 11:24:00,
2013-12-22 22:29:00,78.1,65.4,29.76,SW,229,0.0,0.0,65,0.00,,,0.00,Wunderground v.1.15,2013-12-22 11:29:00,
2013-12-22 22:34:00,77.7,65.4,29.77,West,269,0.0,0.0,66,0.00,,,0.00,Wunderground v.1.15,2013-12-22 11:34:00,
2013-12-22 22:39:00,77.4,65.1,29.76,West,269,0.0,0.0,66,0.00,,,0.00,Wunderground v.1.15,2013-12-22 11:39:00,
2013-12-22 22:44:00,77.0,65.2,29.76,West,269,0.0,0.0,67,0.00,,,0.00,Wunderground v.1.15,2013-12-22 11:44:00,
2013-12-22 22:49:00,76.8,65.0,29.76,West,271,0.0,1.0,67,0.00,,,0.00,Wunderground v.1.15,2013-12-22 11:49:00,
2013-12-22 22:54:00,76.5,65.1,29.76,West,271,0.0,0.0,68,0.00,,,0.00,Wunderground v.1.15,2013-12-22 11:54:00,
2013-12-22 22:59:00,76.2,64.9,29.76,West,272,0.0,0.0,68,0.00,,,0.00,Wunderground v.1.15,2013-12-22 11:59:00,
2013-12-22 23:04:00,75.9,64.6,29.76,West,271,0.0,0.0,68,0.00,,,0.00,Wunderground v.1.15,2013-12-22 12:04:00,
2013-12-22 23:09:00,75.5,64.6,29.76,West,271,0.0,0.0,69,0.00,,,0.00,Wunderground v.1.15,2013-12-22 12:09:00,
2013-12-22 23:14:00,75.1,64.6,29.76,West,271,0.0,0.0,70,0.00,,,0.00,Wunderground v.1.15,2013-12-22 12:14:00,
2013-12-22 23:19:00,74.8,64.4,29.76,West,271,0.0,0.0,70,0.00,,,0.00,Wunderground v.1.15,2013-12-22 12:19:00,
2013-12-22 23:24:00,74.6,64.6,29.76,West,271,0.0,0.0,71,0.00,,,0.00,Wunderground v.1.15,2013-12-22 12:24:00,
2013-12-22 23:29:00,74.4,64.4,29.75,West,271,0.0,0.0,71,0.00,,,0.00,Wunderground v.1.15,2013-12-22 12:29:00,
2013-12-22 23:34:00,74.2,64.6,29.75,West,271,0.0,0.0,72,0.00,,,0.00,Wunderground v.1.15,2013-12-22 12:34:00,
2013-12-22 23:39:00,74.1,64.9,29.75,West,271,0.0,0.0,73,0.00,,,0.00,Wunderground v.1.15,2013-12-22 12:39:00,
2013-12-22 23:44:00,73.9,64.7,29.75,West,271,0.0,0.0,73,0.00,,,0.00,Wunderground v.1.15,2013-12-22 12:44:00,
2013-12-22 23:49:00,73.9,65.1,29.75,West,271,0.0,0.0,74,0.00,,,0.00,Wunderground v.1.15,2013-12-22 12:49:00,
2013-12-22 23:54:00,73.9,65.1,29.75,West,271,0.0,0.0,74,0.00,,,0.00,Wunderground v.1.15,2013-12-22 12:54:00,
2013-12-22 23:59:00,73.6,64.8,29.75,West,271,0.0,0.0,74,0.00,,,0.00,Wunderground v.1.15,2013-12-22 12:59:00,